Showing default

FLOCK 4BE 27, 60513

Orbit data source: Space-Track

FLOCK 4BE 27, 60513 is a payload satellite owned by Planet (US) in SSO that was launched on Fri, 16 Aug 2024 UTC via an FALCON 9 launch vehicle from the Air Force Western Test Range (AFWTR). Payload-class satellites include a variety of spacecraft equipped with specific instruments for various scientific and technological missions. These include communications satellites like Starlink; space stations such as the ISS; scientific satellites like the Hubble; Earth observation satellites from companies like Planet Labs, Umbra, and HawkEye 360; GPS; miniature CubeSats for education and research; and military/defense satellites.

Loading next visibility...
Identifier
60513, 2024-149AX
Orbit
SSO
Country
Flag of USUS
Related business
Manufacturer
Planet
Mission
Operational Commercial Imaging
Bus & Motor
CUBESAT 3U, Unknown motor
Mass
5.7 kg wet, 5.7 kg dry
Launch date (UTC)
2024-08-16 (1 year ago)
Launch vehicle
FALCON 9
Launch site
Air Force Western Test Range (AFWTR)
Object type
Payload
Rocket body
Debris
Shape & HBR
Box + 2 Pan, 1.0 m
Radar Cross Section
0.072 m², Medium (>0.1 m² and < 1m²)

Expand to show TLE details & history
Last TLE update: 22 hours ago

TLE from 22 hours ago
0 FLOCK 4BE 27
1 60513U 24149AX  26034.20491772  .00011106  00000-0  36444-3 0  9995
2 60513  97.3928 116.1997 0005186  70.2327 289.9473 15.31757431 81615
Epoch: 2026-02-03T04:55Z
TLE epoch observation values (Epoch: 2026-02-03T04:55:04.891Z)
Latitude
-0.00003°
Longitude
-90.95987°
Altitude
472.465 km
Speed
7.63 km/s
True Right ascension
07h 44m 47s
True Declination
0° 00' 00"
Sunlit
Object was in full shadow at epoch
Visualization orbit readout
Latitude
Unknown
Longitude
Unknown
Altitude
Unknown
Speed
Unknown
Apparent Right ascension
Unknown
Apparent Declination
Unknown
Sunlit
N/A
Visualization observer readout
Local Sidereal Time
04:27:16
Azimuth
Unknown
Elevation
Unknown
Doppler factor
Unknown
Orbital elements
Apogee altitude
471.069 km
Perigee altitude
463.968 km
Semi-major axis
6,845.655 km
Eccentricity
0.00052
Inclination
97.3928°
RAAN
116.1997°
Arg. of periapsis
70.2327°
True anomaly
289.89143°
Mean anomaly
289.9473°
Eccentric anomaly
289.91936°
Mean motion
3.83196 °/min
Orbital period
93.95 mins
BSTAR
0.00036444
Loading maneuver chart data...
Computing Atmospheric mass density...
Loading historical data...
Loading historical data...
Loading historical data...
Loading historical data...
Loading historical data...
Loading historical data...
Loading historical data...

Documentation

Showing up to 5 results
|